Regional Weather Roundup
Issued by NWS

Home | Current Version | Previous Version | Graphics & Text | Print | Product List | Glossary On
Versions: 1 2 3 4 5 6 7 8 9 10 11 12 13 14 15 16 17 18 19 20 21 22 23 24 25 26 27 28 29 30 31 32 33 34 35 36 37 38 39 40 41 42 43 44 45 46 47 48 49 50
081
ASUS45 KCYS 191610
RWRWY

WYOMING REGIONAL WEATHER ROUNDUP
NATIONAL WEATHER SERVICE CHEYENNE WY
1000 AM MDT SAT AUG 19 2017

NOTE:  "FAIR" INDICATES FEW OR NO CLOUDS BELOW 12,000 FEET
WITH NO SIGNIFICANT WEATHER AND/OR OBSTRUCTIONS TO VISIBILITY.

WYZ001-191700-
YELLOWSTONE NATIONAL PARK

CITY           SKY/WX    TMP DP  RH WIND       PRES   REMARKS
LK YELLOWSTONE   N/A     55  44  66 VRB3      30.30S
W YELLOWSTONE  NOT AVBL

$$
WYZ002>013-054>058-071-098>099-191700-
NORTHERN WYOMING

CITY           SKY/WX    TMP DP  RH WIND       PRES   REMARKS
JACKSON        FAIR      57  33  40 CALM      30.24F
CODY           FAIR      75  39  27 N5        30.07F
GREYBULL       FAIR      72  36  26 CALM      29.99F
WORLAND        FAIR      71  45  39 CALM      30.01S
SHERIDAN       CLOUDY    77  41  27 CALM      29.99S
BUFFALO        CLOUDY    80  27  14 N15G24    30.05R HAZE
GILLETTE       FAIR      82  30  15 NW17      29.98S
HULETT         FAIR      79  43  27 SW8       29.98R
NEWCASTLE      FAIR      77  41  27 W3        29.98S

$$
WYZ014>020-022>026-101>103-191700-
CENTRAL WYOMING

CITY           SKY/WX    TMP DP  RH WIND       PRES   REMARKS
BIG PINEY      FAIR      62  31  31 CALM      30.27S
PINEDALE       FAIR      64  32  29 CALM      30.27S
DUBOIS         FAIR      66  30  26 W7        30.21F
LANDER           N/A    N/A N/A N/A MISG      30.11R
RIVERTON       FAIR      71  38  29 VRB5      30.11R
CASPER         FAIR      77  32  19 SW16      30.08S
DOUGLAS        FAIR      76  46  34 NW8       30.04F

$$
WYZ021-027>030-104>119-191700-
SOUTHERN WYOMING

CITY           SKY/WX    TMP DP  RH WIND       PRES   REMARKS
EVANSTON       FAIR      69  32  25 S7        30.28S
KEMMERER         N/A     68  30  24 W3        30.30R
FORT BRIDGER   FAIR      76  25  15 W8        30.30S
ROCK SPRINGS   FAIR      68  30  24 W8        30.26S
RAWLINS        FAIR      72  31  22 W14       30.24R
SARATOGA       FAIR      72  37  28 S7        30.27S
LARAMIE        FAIR      74  30  19 SW10      30.24S
CHEYENNE       FAIR      81  33  17 W12       30.16R
TORRINGTON     FAIR      79  44  28 NW12      29.98S
PINE BLUFFS    FAIR      82  32  16 W13       30.08S

$$




USA.gov is the U.S. government's official web portal to all federal, state and local government web resources and services.